Flag for France Weather past 2 weeks in Amiens, France

Now
61 °F

Mostly cloudy.


Feels Like: 61 °F
Forecast: 51 / 82 °F
Wind: 15 mph from Northwest

Location: Beauvais Airport

Current Time: Aug 4, 2015 at 7:35:10 AM

Latest Report: Aug 4, 2015 at 7:00 AM


Visibility: N/A

Pressure: 29.95 "Hg

Humidity: 88%

Dew point: 57 °F

Location of AmiensLocation

Historic Weather in Amiens — Graph

°F

Amiens temperature yesterday

Maximum temperature yesterday: 90 °F (at 6:00 PM)
Minimum temperature yesterday: 55 °F (at 7:00 AM)
Average temperature yesterday: 73 °F

Past Weeks' High & Low Weather Summary

 TemperatureHumidityPressure
High90 °F (Aug 3, 6:00 PM)100% (Jul 20, 9:00 AM)30.15 "Hg (Jul 20, 9:00 AM)
Low41 °F (Jul 31, 5:00 AM)23% (Aug 2, 6:00 PM)29.56 "Hg (Jul 25, 3:00 AM)
Average64 °F68%29.94 "Hg
* Reported Jul 20 6:00 AM — Aug 4 6:00 AM, Amiens, Weather by CustomWeather, © 2015

Note: Actual official high and low records may vary slightly from our data, if they occured in-between our weather recording intervals... More about our weather records

Advertising

Amiens weather history for previous 24 hours

 ConditionsComfort  
Time TempWeatherWind HumidityBarometerVisibility
6:00 AM
Tue, Aug 4
63 °FPassing clouds.13 mph88%29.92 "HgN/A
5:30 AM63 °FPassing clouds.7 mph88%29.92 "HgN/A
5:00 AM63 °FMostly cloudy.8 mph88%29.92 "HgN/A
4:30 AM63 °FPassing clouds.3 mph88%29.92 "HgN/A
4:00 AM63 °FPassing clouds.7 mph88%29.89 "HgN/A
3:30 AM64 °FThundershowers. Overcast.12 mph83%29.89 "HgN/A
3:00 AM64 °FMild.10 mph83%29.86 "HgN/A
2:30 AM64 °FClear.7 mph83%29.86 "Hg10 mi
2:00 AM64 °FMild.5 mph83%29.86 "HgN/A
1:30 AM66 °FMild.6 mph73%29.86 "HgN/A
1:00 AM68 °FClear.5 mph73%29.89 "Hg10 mi
12:30 AM66 °FClear.7 mph78%29.89 "Hg10 mi
12:00 AM68 °FMild.3 mph69%29.89 "HgN/A
11:30 PM
Mon, Aug 3
70 °FMild.5 mph64%29.89 "HgN/A
11:00 PM70 °FMild.7 mph69%29.89 "HgN/A
10:30 PM72 °FMild.10 mph65%29.89 "HgN/A
10:00 PM75 °FSunny.12 mph61%29.86 "Hg10 mi
9:30 PM77 °FSunny.7 mph51%29.86 "Hg10 mi
9:00 PM82 °FSunny.8 mph40%29.86 "Hg10 mi
8:30 PM82 °FSunny.7 mph40%29.86 "Hg10 mi
8:00 PM84 °FSunny.8 mph37%29.86 "Hg10 mi
7:30 PM88 °FSunny.9 mph31%29.86 "Hg10 mi
7:00 PM88 °FSunny.10 mph33%29.86 "Hg10 mi
6:30 PM90 °FPassing clouds.10 mph27%29.86 "HgN/A
6:00 PM90 °FPassing clouds.10 mph26%29.89 "HgN/A
5:30 PM88 °FPassing clouds.10 mph31%29.89 "HgN/A
5:00 PM88 °FPassing clouds.12 mph31%29.89 "HgN/A
4:30 PM88 °FPassing clouds.14 mph33%29.92 "HgN/A
4:00 PM86 °FSunny.12 mph31%29.92 "Hg10 mi
3:30 PM86 °FPassing clouds.12 mph35%29.92 "HgN/A
3:00 PM86 °FPassing clouds.10 mph33%29.95 "HgN/A
2:30 PM84 °FPassing clouds.9 mph35%29.95 "HgN/A
2:00 PM84 °FPassing clouds.8 mph35%29.95 "HgN/A
1:30 PM82 °FPassing clouds.8 mph32%29.95 "HgN/A
1:00 PM81 °FSunny.6 mph32%29.98 "Hg10 mi
12:30 PM79 °FPassing clouds.5 mph32%29.98 "HgN/A
12:00 PM79 °FPassing clouds.5 mph32%29.98 "HgN/A
11:30 AM77 °FPassing clouds.8 mph39%29.98 "HgN/A
11:00 AM75 °FPassing clouds.9 mph47%29.98 "HgN/A
10:30 AM73 °FPassing clouds.7 mph50%29.98 "HgN/A
10:00 AM73 °FPassing clouds.8 mph50%29.95 "HgN/A
9:30 AM72 °FPassing clouds.8 mph53%29.95 "HgN/A
9:00 AM70 °FSunny.2 mph53%29.95 "Hg10 mi
8:30 AM68 °FPassing clouds.1 mph60%29.95 "HgN/A
8:00 AM61 °FSunny.No wind83%29.95 "Hg10 mi
7:30 AM59 °FSunny.2 mph77%29.92 "Hg10 mi
7:00 AM55 °FClear.2 mph77%29.92 "Hg10 mi
Weather by CustomWeather, © 2015

See weather overviewHow to use our weather pages